SQ9IWE-13 Weather Reports


Display with metric or nautical units.
time (UTC)temp
F
wind
direction
speed
MPH
gust
MPH
rain 1hr
in
rain 24hr
in
rain mn
in
humidity
%
barometer
mb
20260505051001 68 0.0 0.0 0.00 0.00 0.00 41 1010.8
20260505041001 57 0.0 0.0 0.00 0.00 0.00 54 1010.8
20260505040001 53 0.0 0.0 0.00 0.00 0.00 59 1010.9
20260505035001 52 0.0 0.0 0.00 0.00 0.00 60 1011.0
20260505034001 52 0.0 0.0 0.00 0.00 0.00 61 1010.9
20260505033001 52 0.0 0.0 0.00 0.00 0.00 61 1010.9
20260505032001 52 0.0 0.0 0.00 0.00 0.00 60 1011.0
20260505031001 52 0.0 0.0 0.00 0.00 0.00 60 1010.9
20260505030001 52 0.0 0.0 0.00 0.00 0.00 59 1011.0
20260505025001 53 0.0 0.0 0.00 0.00 0.00 59 1011.1
20260505024001 53 0.0 0.0 0.00 0.00 0.00 59 1011.2
20260505023001 53 0.0 0.0 0.00 0.00 0.00 58 1011.3
20260505022001 54 0.0 0.0 0.00 0.00 0.00 56 1011.3
20260505021001 54 0.0 0.0 0.00 0.00 0.00 56 1011.4
20260505020001 54 0.0 0.0 0.00 0.00 0.00 56 1011.4
20260505015001 54 0.0 0.0 0.00 0.00 0.00 56 1011.5
20260505014001 55 0.0 0.0 0.00 0.00 0.00 56 1011.5
20260505013001 55 0.0 0.0 0.00 0.00 0.00 55 1011.5
20260505012000 55 0.0 0.0 0.00 0.00 0.00 55 1011.6
20260505011000 55 0.0 0.0 0.00 0.00 0.00 55 1011.6
20260505010001 55 0.0 0.0 0.00 0.00 0.00 56 1011.6
20260505004000 55 0.0 0.0 0.00 0.00 0.00 56 1011.7
20260505003000 55 0.0 0.0 0.00 0.00 0.00 55 1011.8
20260505002000 55 0.0 0.0 0.00 0.00 0.00 55 1011.9
20260505001000 55 0.0 0.0 0.00 0.00 0.00 55 1012.0
20260505000000 56 0.0 0.0 0.00 0.00 0.00 55 1012.1
20260504235000 55 0.0 0.0 0.00 0.00 0.00 56 1012.2
20260504234000 56 0.0 0.0 0.00 0.00 0.00 57 1012.3
20260504233000 56 0.0 0.0 0.00 0.00 0.00 57 1012.2
20260504232000 55 0.0 0.0 0.00 0.00 0.00 57 1012.4
20260504231000 56 0.0 0.0 0.00 0.00 0.00 57 1012.5
20260504230001 56 0.0 0.0 0.00 0.00 0.00 55 1012.5
20260504225001 57 0.0 0.0 0.00 0.00 0.00 54 1012.6
20260504224001 57 0.0 0.0 0.00 0.00 0.00 54 1012.7
20260504223001 58 0.0 0.0 0.00 0.00 0.00 52 1012.7
20260504222001 58 0.0 0.0 0.00 0.00 0.00 52 1012.7
20260504221001 59 0.0 0.0 0.00 0.00 0.00 52 1012.8
20260504220001 59 0.0 0.0 0.00 0.00 0.00 51 1012.7
20260504215001 60 0.0 0.0 0.00 0.00 0.00 50 1012.8
20260504214001 60 0.0 0.0 0.00 0.00 0.00 50 1012.7
20260504213001 60 0.0 0.0 0.00 0.00 0.00 50 1012.8
20260504212001 60 0.0 0.0 0.00 0.00 0.00 51 1012.7
20260504211001 60 0.0 0.0 0.00 0.00 0.00 52 1012.9
20260504210001 61 0.0 0.0 0.00 0.00 0.00 52 1012.8
20260504205001 61 0.0 0.0 0.00 0.00 0.00 52 1012.8
20260504203001 62 0.0 0.0 0.00 0.00 0.00 53 1012.7
20260504202001 62 0.0 0.0 0.00 0.00 0.00 53 1012.7
20260504201001 63 0.0 0.0 0.00 0.00 0.00 52 1012.7
20260504200001 64 0.0 0.0 0.00 0.00 0.00 51 1012.7
20260504194001 65 0.0 0.0 0.00 0.00 0.00 50 1012.5
20260504193001 66 0.0 0.0 0.00 0.00 0.00 49 1012.5
20260504192001 66 0.0 0.0 0.00 0.00 0.00 49 1012.5
20260504191001 66 0.0 0.0 0.00 0.00 0.00 49 1012.5
20260504190001 67 0.0 0.0 0.00 0.00 0.00 48 1012.4
20260504185001 68 0.0 0.0 0.00 0.00 0.00 48 1012.4
20260504184001 68 0.0 0.0 0.00 0.00 0.00 47 1012.2
20260504183001 69 0.0 0.0 0.00 0.00 0.00 45 1012.2
20260504182001 70 0.0 0.0 0.00 0.00 0.00 44 1012.2
20260504181001 71 0.0 0.0 0.00 0.00 0.00 43 1012.1
20260504180001 71 0.0 0.0 0.00 0.00 0.00 43 1012.0
20260504175000 72 0.0 0.0 0.00 0.00 0.00 43 1012.0
20260504174001 73 0.0 0.0 0.00 0.00 0.00 42 1012.0
20260504173000 73 0.0 0.0 0.00 0.00 0.00 42 1011.9
20260504172000 74 0.0 0.0 0.00 0.00 0.00 42 1011.7
20260504171000 74 0.0 0.0 0.00 0.00 0.00 41 1011.7
20260504151001 77 0.0 0.0 0.00 0.00 0.00 36 1012.2
20260504141001 78 0.0 0.0 0.00 0.00 0.00 37 1012.5
20260504082002 76 0.0 0.0 0.00 0.00 0.00 35 1015.4
20260504081001 76 0.0 0.0 0.00 0.00 0.00 34 1015.4